Location: Newark
(40.9833°N, 0.0333°W)
Time: 01:35:05
(UTC+00:00)

deb Explorer IX - Pass Details

Date: 04 November 2020
Orbit: 537 x 1105 km, 38.8° (Epoch: 02 December)

Event Time Altitude Azimuth Distance (km) Brightness Sun altitude
Rises 07:47:46 0° 278° (W) 3,451 ? 11.5°
Reaches altitude 10° 07:50:24 10° 269° (W) 2,600 ? 11.9°
Maximum altitude 07:56:00 34° 207° (SSW) 1,590 ? 12.8°
Drops below altitude 10° 08:02:11 10° 146° (SE) 2,884 ? 13.7°
Sets 08:05:17 0° 137° (SE) 3,879 ? 14.2°
